owner,sensor,date,latitude,longitude,vertical_datum,sea_water_practical_salinity,qcFlag 
SCCF RECON,ioos:station:SCCF:13:1,2013-01-01T00:00:00Z,26.5255,-82.0032,2.34,29.14,1111122 
SCCF RECON,ioos:station:SCCF:13:1,2013-01-01T01:00:00Z,26.5255,-82.0032,2.33,29.15,1111122 
SCCF RECON,ioos:station:SCCF:13:1,2013-01-01T02:00:00Z,26.5255,-82.0032,2.3,28.24,1111122 
SCCF RECON,ioos:station:SCCF:13:1,2013-01-01T03:00:00Z,26.5255,-82.0032,2.319,27.75,1111122 
SCCF RECON,ioos:station:SCCF:13:1,2013-01-01T04:00:00Z,26.5255,-82.0032,2.39,26.83,1111122 
SCCF RECON,ioos:station:SCCF:13:1,2013-01-01T05:00:00Z,26.5255,-82.0032,2.48,28.18,1111122 
SCCF RECON,ioos:station:SCCF:13:1,2013-01-01T06:00:00Z,26.5255,-82.0032,2.55,28.27,1111122 
SCCF RECON,ioos:station:SCCF:13:1,2013-01-01T07:00:00Z,26.5255,-82.0032,2.58,28.96,1111122 
SCCF RECON,ioos:station:SCCF:13:1,2013-01-01T08:00:00Z,26.5255,-82.0032,2.61,29.9,1111122 
SCCF RECON,ioos:station:SCCF:13:1,2013-01-01T09:00:00Z,26.5255,-82.0032,2.57,30.51,1111122 
SCCF RECON,ioos:station:SCCF:13:1,2013-01-01T10:00:00Z,26.5255,-82.0032,2.49,30.97,1111122 
SCCF RECON,ioos:station:SCCF:13:1,2013-01-01T11:00:00Z,26.5255,-82.0032,2.388,30.79,1111122 
SCCF RECON,ioos:station:SCCF:13:1,2013-01-01T12:00:00Z,26.5255,-82.0032,2.298,27.35,1111122 
SCCF RECON,ioos:station:SCCF:13:1,2013-01-01T13:00:00Z,26.5255,-82.0032,2.233,26.45,1111122 
SCCF RECON,ioos:station:SCCF:13:1,2013-01-01T14:00:00Z,26.5255,-82.0032,2.17,26.24,1111122 
SCCF RECON,ioos:station:SCCF:13:1,2013-01-01T15:00:00Z,26.5255,-82.0032,2.13,24.76,1111122 
SCCF RECON,ioos:station:SCCF:13:1,2013-01-01T16:00:00Z,26.5255,-82.0032,2.18,24.27,1111122 
SCCF RECON,ioos:station:SCCF:13:1,2013-01-01T17:00:00Z,26.5255,-82.0032,2.315,23.84,1111122 
SCCF RECON,ioos:station:SCCF:13:1,2013-01-01T18:00:00Z,26.5255,-82.0032,2.4,25.71,1111122 
SCCF RECON,ioos:station:SCCF:13:1,2013-01-01T19:00:00Z,26.5255,-82.0032,2.447,26.9,1111122 
SCCF RECON,ioos:station:SCCF:13:1,2013-01-01T20:00:00Z,26.5255,-82.0032,2.51,29.17,1111122 
SCCF RECON,ioos:station:SCCF:13:1,2013-01-01T21:00:00Z,26.5255,-82.0032,2.55,30.33,1111122 
SCCF RECON,ioos:station:SCCF:13:1,2013-01-01T22:00:00Z,26.5255,-82.0032,2.547,30.5,1111122 
SCCF RECON,ioos:station:SCCF:13:1,2013-01-01T23:00:00Z,26.5255,-82.0032,2.492,30.53,1111122 
SCCF RECON,ioos:station:SCCF:13:1,2013-01-02T00:00:00Z,26.5255,-82.0032,2.42,30.56,1111122 
SCCF RECON,ioos:station:SCCF:13:1,2013-01-02T01:00:00Z,26.5255,-82.0032,2.37,30.36,1111122 
SCCF RECON,ioos:station:SCCF:13:1,2013-01-02T02:00:00Z,26.5255,-82.0032,2.33,28.88,1111122 
SCCF RECON,ioos:station:SCCF:13:1,2013-01-02T03:00:00Z,26.5255,-82.0032,2.3,27.71,1111122 
SCCF RECON,ioos:station:SCCF:13:1,2013-01-02T04:00:00Z,26.5255,-82.0032,2.35,26.08,1111122 
SCCF RECON,ioos:station:SCCF:13:1,2013-01-02T05:00:00Z,26.5255,-82.0032,2.44,26.61,1111122 
SCCF RECON,ioos:station:SCCF:13:1,2013-01-02T06:00:00Z,26.5255,-82.0032,2.51,28.82,1111122 
SCCF RECON,ioos:station:SCCF:13:1,2013-01-02T07:00:00Z,26.5255,-82.0032,2.54,28.96,1111122 
SCCF RECON,ioos:station:SCCF:13:1,2013-01-02T08:00:00Z,26.5255,-82.0032,2.56,29.57,1111122 
SCCF RECON,ioos:station:SCCF:13:1,2013-01-02T09:00:00Z,26.5255,-82.0032,2.57,30.1,1111122 
SCCF RECON,ioos:station:SCCF:13:1,2013-01-02T10:00:00Z,26.5255,-82.0032,2.53,30.49,1111122 
SCCF RECON,ioos:station:SCCF:13:1,2013-01-02T11:00:00Z,26.5255,-82.0032,2.44,30.43,1111122 
SCCF RECON,ioos:station:SCCF:13:1,2013-01-02T12:00:00Z,26.5255,-82.0032,2.35,29.71,1111122 
SCCF RECON,ioos:station:SCCF:13:1,2013-01-02T13:00:00Z,26.5255,-82.0032,2.28,27.29,1111122 
SCCF RECON,ioos:station:SCCF:13:1,2013-01-02T14:00:00Z,26.5255,-82.0032,2.21,26.53,1111122 
SCCF RECON,ioos:station:SCCF:13:1,2013-01-02T15:00:00Z,26.5255,-82.0032,2.15,25.61,1111122 
SCCF RECON,ioos:station:SCCF:13:1,2013-01-02T16:00:00Z,26.5255,-82.0032,2.13,24.73,1111122 
SCCF RECON,ioos:station:SCCF:13:1,2013-01-02T17:00:00Z,26.5255,-82.0032,2.231,24.06,1111122 
SCCF RECON,ioos:station:SCCF:13:1,2013-01-02T18:00:00Z,26.5255,-82.0032,2.349,24.25,1111122 
SCCF RECON,ioos:station:SCCF:13:1,2013-01-02T19:00:00Z,26.5255,-82.0032,2.405,25.8,1111122 
SCCF RECON,ioos:station:SCCF:13:1,2013-01-02T20:00:00Z,26.5255,-82.0032,2.452,27.42,1111122 
SCCF RECON,ioos:station:SCCF:13:1,2013-01-02T21:00:00Z,26.5255,-82.0032,2.511,29.29,1111122 
SCCF RECON,ioos:station:SCCF:13:1,2013-01-02T22:00:00Z,26.5255,-82.0032,2.55,30.55,1111122 
SCCF RECON,ioos:station:SCCF:13:1,2013-01-02T23:00:00Z,26.5255,-82.0032,2.52,30.74,1111122 
SCCF RECON,ioos:station:SCCF:13:1,2013-01-03T00:00:00Z,26.5255,-82.0032,2.45,30.86,1111122 
SCCF RECON,ioos:station:SCCF:13:1,2013-01-03T01:00:00Z,26.5255,-82.0032,2.39,30.71,1111122 
SCCF RECON,ioos:station:SCCF:13:1,2013-01-03T02:00:00Z,26.5255,-82.0032,2.33,29.18,1111122 
SCCF RECON,ioos:station:SCCF:13:1,2013-01-03T03:00:00Z,26.5255,-82.0032,2.29,27.19,1111122 
SCCF RECON,ioos:station:SCCF:13:1,2013-01-03T04:00:00Z,26.5255,-82.0032,2.27,25.63,1111122 
SCCF RECON,ioos:station:SCCF:13:1,2013-01-03T05:00:00Z,26.5255,-82.0032,2.33,24.49,1111122 
SCCF RECON,ioos:station:SCCF:13:1,2013-01-03T06:00:00Z,26.5255,-82.0032,2.41,24.71,1111122 
SCCF RECON,ioos:station:SCCF:13:1,2013-01-03T07:00:00Z,26.5255,-82.0032,2.45,28.1,1111122 
SCCF RECON,ioos:station:SCCF:13:1,2013-01-03T08:00:00Z,26.5255,-82.0032,2.47,28.2,1111122 
SCCF RECON,ioos:station:SCCF:13:1,2013-01-03T09:00:00Z,26.5255,-82.0032,2.49,28.69,1111122 
SCCF RECON,ioos:station:SCCF:13:1,2013-01-03T10:00:00Z,26.5255,-82.0032,2.49,29.55,1111122 
SCCF RECON,ioos:station:SCCF:13:1,2013-01-03T11:00:00Z,26.5255,-82.0032,2.456,30.01,1111122 
SCCF RECON,ioos:station:SCCF:13:1,2013-01-03T12:00:00Z,26.5255,-82.0032,2.38,30.01,1111122 
SCCF RECON,ioos:station:SCCF:13:1,2013-01-03T13:00:00Z,26.5255,-82.0032,2.3,27.22,1111122 
SCCF RECON,ioos:station:SCCF:13:1,2013-01-03T14:00:00Z,26.5255,-82.0032,2.24,24.62,1111122 
SCCF RECON,ioos:station:SCCF:13:1,2013-01-03T15:00:00Z,26.5255,-82.0032,2.18,24.83,1111122 
SCCF RECON,ioos:station:SCCF:13:1,2013-01-03T16:00:00Z,26.5255,-82.0032,2.129,23.63,1111122 
SCCF RECON,ioos:station:SCCF:13:1,2013-01-03T17:00:00Z,26.5255,-82.0032,2.16,22.73,1111122 
SCCF RECON,ioos:station:SCCF:13:1,2013-01-03T18:00:00Z,26.5255,-82.0032,2.266,22.22,1111122 
SCCF RECON,ioos:station:SCCF:13:1,2013-01-03T19:00:00Z,26.5255,-82.0032,2.35,24.27,1111122 
SCCF RECON,ioos:station:SCCF:13:1,2013-01-03T20:00:00Z,26.5255,-82.0032,2.42,25.4,1111122 
SCCF RECON,ioos:station:SCCF:13:1,2013-01-03T21:00:00Z,26.5255,-82.0032,2.494,28.0,1111122 
SCCF RECON,ioos:station:SCCF:13:1,2013-01-03T22:00:00Z,26.5255,-82.0032,2.54,30.5,1111122 
SCCF RECON,ioos:station:SCCF:13:1,2013-01-03T23:00:00Z,26.5255,-82.0032,2.55,31.1,1111122 
SCCF RECON,ioos:station:SCCF:13:1,2013-01-04T00:00:00Z,26.5255,-82.0032,2.508,31.21,1111122 
SCCF RECON,ioos:station:SCCF:13:1,2013-01-04T01:00:00Z,26.5255,-82.0032,2.44,31.32,1111122 
SCCF RECON,ioos:station:SCCF:13:1,2013-01-04T02:00:00Z,26.5255,-82.0032,2.373,30.76,1111122 
SCCF RECON,ioos:station:SCCF:13:1,2013-01-04T03:00:00Z,26.5255,-82.0032,2.32,27.68,1111122 
SCCF RECON,ioos:station:SCCF:13:1,2013-01-04T04:00:00Z,26.5255,-82.0032,2.28,26.48,1111122 
SCCF RECON,ioos:station:SCCF:13:1,2013-01-04T05:00:00Z,26.5255,-82.0032,2.26,25.56,1111122 
SCCF RECON,ioos:station:SCCF:13:1,2013-01-04T06:00:00Z,26.5255,-82.0032,2.264,24.57,1111122 
SCCF RECON,ioos:station:SCCF:13:1,2013-01-04T07:00:00Z,26.5255,-82.0032,2.33,23.64,1111122 
SCCF RECON,ioos:station:SCCF:13:1,2013-01-04T08:00:00Z,26.5255,-82.0032,2.4,24.6,1111122 
SCCF RECON,ioos:station:SCCF:13:1,2013-01-04T09:00:00Z,26.5255,-82.0032,2.43,27.02,1111122 
SCCF RECON,ioos:station:SCCF:13:1,2013-01-04T10:00:00Z,26.5255,-82.0032,2.46,27.93,1111122 
SCCF RECON,ioos:station:SCCF:13:1,2013-01-04T11:00:00Z,26.5255,-82.0032,2.47,29.04,1111122 
SCCF RECON,ioos:station:SCCF:13:1,2013-01-04T12:00:00Z,26.5255,-82.0032,2.436,29.25,1111122 
SCCF RECON,ioos:station:SCCF:13:1,2013-01-04T13:00:00Z,26.5255,-82.0032,2.37,28.77,1111122 
SCCF RECON,ioos:station:SCCF:13:1,2013-01-04T14:00:00Z,26.5255,-82.0032,2.309,25.63,1111122 
SCCF RECON,ioos:station:SCCF:13:1,2013-01-04T15:00:00Z,26.5255,-82.0032,2.25,23.01,1111122 
SCCF RECON,ioos:station:SCCF:13:1,2013-01-04T16:00:00Z,26.5255,-82.0032,2.193,22.27,1111122 
SCCF RECON,ioos:station:SCCF:13:1,2013-01-04T17:00:00Z,26.5255,-82.0032,2.17,21.31,1111122 
SCCF RECON,ioos:station:SCCF:13:1,2013-01-04T18:00:00Z,26.5255,-82.0032,2.22,20.87,1111122 
SCCF RECON,ioos:station:SCCF:13:1,2013-01-04T19:00:00Z,26.5255,-82.0032,2.33,20.91,1111122 
SCCF RECON,ioos:station:SCCF:13:1,2013-01-04T20:00:00Z,26.5255,-82.0032,2.42,24.45,1111122 
SCCF RECON,ioos:station:SCCF:13:1,2013-01-04T21:00:00Z,26.5255,-82.0032,2.472,26.33,1111122 
SCCF RECON,ioos:station:SCCF:13:1,2013-01-04T22:00:00Z,26.5255,-82.0032,2.52,28.91,1111122 
SCCF RECON,ioos:station:SCCF:13:1,2013-01-04T23:00:00Z,26.5255,-82.0032,2.551,30.17,1111122 
SCCF RECON,ioos:station:SCCF:13:1,2013-01-05T00:00:00Z,26.5255,-82.0032,2.556,31.53,1111122 
SCCF RECON,ioos:station:SCCF:13:1,2013-01-05T01:00:00Z,26.5255,-82.0032,2.493,31.51,1111122 
SCCF RECON,ioos:station:SCCF:13:1,2013-01-05T02:00:00Z,26.5255,-82.0032,2.4,30.39,1111122 
SCCF RECON,ioos:station:SCCF:13:1,2013-01-05T03:00:00Z,26.5255,-82.0032,2.31,28.25,1111122 
SCCF RECON,ioos:station:SCCF:13:1,2013-01-05T04:00:00Z,26.5255,-82.0032,2.25,24.26,1111122 
SCCF RECON,ioos:station:SCCF:13:1,2013-01-05T05:00:00Z,26.5255,-82.0032,2.198,22.59,1111122 
SCCF RECON,ioos:station:SCCF:13:1,2013-01-05T06:00:00Z,26.5255,-82.0032,2.16,21.37,1111122 
SCCF RECON,ioos:station:SCCF:13:1,2013-01-05T07:00:00Z,26.5255,-82.0032,2.14,20.52,1111122 
SCCF RECON,ioos:station:SCCF:13:1,2013-01-05T08:00:00Z,26.5255,-82.0032,2.2,20.14,1111122 
SCCF RECON,ioos:station:SCCF:13:1,2013-01-05T09:00:00Z,26.5255,-82.0032,2.25,19.73,1111122 
SCCF RECON,ioos:station:SCCF:13:1,2013-01-05T10:00:00Z,26.5255,-82.0032,2.27,19.83,1111122 
SCCF RECON,ioos:station:SCCF:13:1,2013-01-05T11:00:00Z,26.5255,-82.0032,2.28,24.29,1111122 
SCCF RECON,ioos:station:SCCF:13:1,2013-01-05T12:00:00Z,26.5255,-82.0032,2.296,26.07,1111122 
SCCF RECON,ioos:station:SCCF:13:1,2013-01-05T13:00:00Z,26.5255,-82.0032,2.3,26.19,1111122 
SCCF RECON,ioos:station:SCCF:13:1,2013-01-05T14:00:00Z,26.5255,-82.0032,2.28,27.23,1111122 
SCCF RECON,ioos:station:SCCF:13:1,2013-01-05T15:00:00Z,26.5255,-82.0032,2.26,27.38,1111122 
SCCF RECON,ioos:station:SCCF:13:1,2013-01-05T16:00:00Z,26.5255,-82.0032,1.0,-9999.0,1111122 
SCCF RECON,ioos:station:SCCF:13:1,2013-01-05T17:00:00Z,26.5255,-82.0032,2.171,22.88,1111122 
SCCF RECON,ioos:station:SCCF:13:1,2013-01-05T18:00:00Z,26.5255,-82.0032,2.169,20.26,1111122 
SCCF RECON,ioos:station:SCCF:13:1,2013-01-05T19:00:00Z,26.5255,-82.0032,2.236,20.54,1111122 
SCCF RECON,ioos:station:SCCF:13:1,2013-01-05T20:00:00Z,26.5255,-82.0032,2.318,25.45,1111122 
SCCF RECON,ioos:station:SCCF:13:1,2013-01-05T21:00:00Z,26.5255,-82.0032,2.401,28.19,1111122 
SCCF RECON,ioos:station:SCCF:13:1,2013-01-05T22:00:00Z,26.5255,-82.0032,2.479,29.81,1111122 
SCCF RECON,ioos:station:SCCF:13:1,2013-01-05T23:00:00Z,26.5255,-82.0032,2.547,30.7,1111122 
SCCF RECON,ioos:station:SCCF:13:1,2013-01-06T00:00:00Z,26.5255,-82.0032,2.58,31.19,1111122 
SCCF RECON,ioos:station:SCCF:13:1,2013-01-06T01:00:00Z,26.5255,-82.0032,2.56,31.35,1111122 
SCCF RECON,ioos:station:SCCF:13:1,2013-01-06T02:00:00Z,26.5255,-82.0032,2.491,31.51,1111122 
SCCF RECON,ioos:station:SCCF:13:1,2013-01-06T03:00:00Z,26.5255,-82.0032,2.41,31.49,1111122 
SCCF RECON,ioos:station:SCCF:13:1,2013-01-06T04:00:00Z,26.5255,-82.0032,2.33,29.92,1111122 
SCCF RECON,ioos:station:SCCF:13:1,2013-01-06T05:00:00Z,26.5255,-82.0032,2.26,25.91,1111122 
SCCF RECON,ioos:station:SCCF:13:1,2013-01-06T06:00:00Z,26.5255,-82.0032,2.19,25.1,1111122 
SCCF RECON,ioos:station:SCCF:13:1,2013-01-06T07:00:00Z,26.5255,-82.0032,2.12,23.26,1111122 
SCCF RECON,ioos:station:SCCF:13:1,2013-01-06T08:00:00Z,26.5255,-82.0032,2.09,22.27,1111122 
SCCF RECON,ioos:station:SCCF:13:1,2013-01-06T09:00:00Z,26.5255,-82.0032,2.159,21.76,1111122 
SCCF RECON,ioos:station:SCCF:13:1,2013-01-06T10:00:00Z,26.5255,-82.0032,2.232,21.08,1111122 
SCCF RECON,ioos:station:SCCF:13:1,2013-01-06T11:00:00Z,26.5255,-82.0032,2.28,21.73,1111122 
SCCF RECON,ioos:station:SCCF:13:1,2013-01-06T12:00:00Z,26.5255,-82.0032,2.31,25.04,1111122 
SCCF RECON,ioos:station:SCCF:13:1,2013-01-06T13:00:00Z,26.5255,-82.0032,2.36,26.12,1111122 
SCCF RECON,ioos:station:SCCF:13:1,2013-01-06T14:00:00Z,26.5255,-82.0032,2.38,27.46,1111122 
SCCF RECON,ioos:station:SCCF:13:1,2013-01-06T15:00:00Z,26.5255,-82.0032,2.39,28.65,1111122 
SCCF RECON,ioos:station:SCCF:13:1,2013-01-06T16:00:00Z,26.5255,-82.0032,2.37,29.58,1111122 
SCCF RECON,ioos:station:SCCF:13:1,2013-01-06T17:00:00Z,26.5255,-82.0032,2.321,30.14,1111122 
SCCF RECON,ioos:station:SCCF:13:1,2013-01-06T18:00:00Z,26.5255,-82.0032,2.27,29.73,1111122 
SCCF RECON,ioos:station:SCCF:13:1,2013-01-06T19:00:00Z,26.5255,-82.0032,2.27,28.3,1111122 
SCCF RECON,ioos:station:SCCF:13:1,2013-01-06T20:00:00Z,26.5255,-82.0032,2.33,27.91,1111122 
SCCF RECON,ioos:station:SCCF:13:1,2013-01-06T21:00:00Z,26.5255,-82.0032,2.402,29.13,1111122 
SCCF RECON,ioos:station:SCCF:13:1,2013-01-06T22:00:00Z,26.5255,-82.0032,2.49,29.41,1111122 
SCCF RECON,ioos:station:SCCF:13:1,2013-01-06T23:00:00Z,26.5255,-82.0032,2.55,30.21,1111122 
SCCF RECON,ioos:station:SCCF:13:1,2013-01-07T00:00:00Z,26.5255,-82.0032,2.59,31.07,1111122 
SCCF RECON,ioos:station:SCCF:13:1,2013-01-07T01:00:00Z,26.5255,-82.0032,2.61,31.51,1111122 
SCCF RECON,ioos:station:SCCF:13:1,2013-01-07T02:00:00Z,26.5255,-82.0032,2.576,31.76,1111122 
SCCF RECON,ioos:station:SCCF:13:1,2013-01-07T03:00:00Z,26.5255,-82.0032,2.51,31.97,1111122 
SCCF RECON,ioos:station:SCCF:13:1,2013-01-07T04:00:00Z,26.5255,-82.0032,2.42,30.35,1111122 
SCCF RECON,ioos:station:SCCF:13:1,2013-01-07T05:00:00Z,26.5255,-82.0032,2.34,29.32,1111122 
SCCF RECON,ioos:station:SCCF:13:1,2013-01-07T06:00:00Z,26.5255,-82.0032,2.25,26.93,1111122 
SCCF RECON,ioos:station:SCCF:13:1,2013-01-07T07:00:00Z,26.5255,-82.0032,2.16,24.93,1111122 
SCCF RECON,ioos:station:SCCF:13:1,2013-01-07T08:00:00Z,26.5255,-82.0032,2.071,23.07,1111122 
SCCF RECON,ioos:station:SCCF:13:1,2013-01-07T09:00:00Z,26.5255,-82.0032,2.03,22.29,1111122 
SCCF RECON,ioos:station:SCCF:13:1,2013-01-07T10:00:00Z,26.5255,-82.0032,2.062,21.17,1111122 
SCCF RECON,ioos:station:SCCF:13:1,2013-01-07T11:00:00Z,26.5255,-82.0032,2.16,20.42,1111122 
SCCF RECON,ioos:station:SCCF:13:1,2013-01-07T12:00:00Z,26.5255,-82.0032,2.25,19.99,1111122 
SCCF RECON,ioos:station:SCCF:13:1,2013-01-07T13:00:00Z,26.5255,-82.0032,2.31,22.79,1111122 
SCCF RECON,ioos:station:SCCF:13:1,2013-01-07T14:00:00Z,26.5255,-82.0032,2.356,24.72,1111122 
SCCF RECON,ioos:station:SCCF:13:1,2013-01-07T15:00:00Z,26.5255,-82.0032,2.38,26.74,1111122 
SCCF RECON,ioos:station:SCCF:13:1,2013-01-07T16:00:00Z,26.5255,-82.0032,2.389,28.38,1111122 
SCCF RECON,ioos:station:SCCF:13:1,2013-01-07T17:00:00Z,26.5255,-82.0032,2.366,29.46,1111122 
SCCF RECON,ioos:station:SCCF:13:1,2013-01-07T18:00:00Z,26.5255,-82.0032,2.342,29.88,1111122 
SCCF RECON,ioos:station:SCCF:13:1,2013-01-07T19:00:00Z,26.5255,-82.0032,1.0,-9999.0,1111122 
SCCF RECON,ioos:station:SCCF:13:1,2013-01-07T20:00:00Z,26.5255,-82.0032,1.0,-9999.0,1111122 
SCCF RECON,ioos:station:SCCF:13:1,2013-01-07T21:00:00Z,26.5255,-82.0032,1.0,-9999.0,1111122 
SCCF RECON,ioos:station:SCCF:13:1,2013-01-07T22:00:00Z,26.5255,-82.0032,1.0,-9999.0,1111122 
SCCF RECON,ioos:station:SCCF:13:1,2013-01-07T23:00:00Z,26.5255,-82.0032,1.0,-9999.0,1111122 
SCCF RECON,ioos:station:SCCF:13:1,2013-01-08T00:00:00Z,26.5255,-82.0032,1.0,-9999.0,1111122 
SCCF RECON,ioos:station:SCCF:13:1,2013-01-08T01:00:00Z,26.5255,-82.0032,1.0,-9999.0,1111122 
SCCF RECON,ioos:station:SCCF:13:1,2013-01-08T02:00:00Z,26.5255,-82.0032,1.0,-9999.0,1111122 
SCCF RECON,ioos:station:SCCF:13:1,2013-01-08T03:00:00Z,26.5255,-82.0032,1.0,-9999.0,1111122 
SCCF RECON,ioos:station:SCCF:13:1,2013-01-08T04:00:00Z,26.5255,-82.0032,1.0,-9999.0,1111122 
SCCF RECON,ioos:station:SCCF:13:1,2013-01-08T05:00:00Z,26.5255,-82.0032,1.0,-9999.0,1111122 
SCCF RECON,ioos:station:SCCF:13:1,2013-01-08T06:00:00Z,26.5255,-82.0032,1.0,-9999.0,1111122 
SCCF RECON,ioos:station:SCCF:13:1,2013-01-08T07:00:00Z,26.5255,-82.0032,1.0,-9999.0,1111122 
SCCF RECON,ioos:station:SCCF:13:1,2013-01-08T08:00:00Z,26.5255,-82.0032,1.0,-9999.0,1111122 
SCCF RECON,ioos:station:SCCF:13:1,2013-01-08T09:00:00Z,26.5255,-82.0032,1.0,-9999.0,1111122 
SCCF RECON,ioos:station:SCCF:13:1,2013-01-08T10:00:00Z,26.5255,-82.0032,1.0,-9999.0,1111122 
SCCF RECON,ioos:station:SCCF:13:1,2013-01-08T11:00:00Z,26.5255,-82.0032,1.0,-9999.0,1111122 
SCCF RECON,ioos:station:SCCF:13:1,2013-01-08T12:00:00Z,26.5255,-82.0032,1.0,-9999.0,1111122 
SCCF RECON,ioos:station:SCCF:13:1,2013-01-08T13:00:00Z,26.5255,-82.0032,1.0,-9999.0,1111122 
SCCF RECON,ioos:station:SCCF:13:1,2013-01-08T14:00:00Z,26.5255,-82.0032,1.0,-9999.0,1111122 
SCCF RECON,ioos:station:SCCF:13:1,2013-01-08T15:00:00Z,26.5255,-82.0032,1.0,-9999.0,1111122 
SCCF RECON,ioos:station:SCCF:13:1,2013-01-08T16:00:00Z,26.5255,-82.0032,1.0,-9999.0,1111122 
SCCF RECON,ioos:station:SCCF:13:1,2013-01-08T17:00:00Z,26.5255,-82.0032,1.0,-9999.0,1111122 
SCCF RECON,ioos:station:SCCF:13:1,2013-01-08T18:00:00Z,26.5255,-82.0032,1.0,-9999.0,1111122 
SCCF RECON,ioos:station:SCCF:13:1,2013-01-08T19:00:00Z,26.5255,-82.0032,1.0,-9999.0,1111122 
SCCF RECON,ioos:station:SCCF:13:1,2013-01-08T20:00:00Z,26.5255,-82.0032,1.0,-9999.0,1111122 
SCCF RECON,ioos:station:SCCF:13:1,2013-01-08T21:00:00Z,26.5255,-82.0032,1.0,-9999.0,1111122 
SCCF RECON,ioos:station:SCCF:13:1,2013-01-08T22:00:00Z,26.5255,-82.0032,1.0,-9999.0,1111122 
SCCF RECON,ioos:station:SCCF:13:1,2013-01-08T23:00:00Z,26.5255,-82.0032,1.0,-9999.0,1111122 
SCCF RECON,ioos:station:SCCF:13:1,2013-01-09T00:00:00Z,26.5255,-82.0032,1.0,-9999.0,1111122 
SCCF RECON,ioos:station:SCCF:13:1,2013-01-09T01:00:00Z,26.5255,-82.0032,1.0,-9999.0,1111122 
SCCF RECON,ioos:station:SCCF:13:1,2013-01-09T02:00:00Z,26.5255,-82.0032,1.0,-9999.0,1111122 
SCCF RECON,ioos:station:SCCF:13:1,2013-01-09T03:00:00Z,26.5255,-82.0032,1.0,-9999.0,1111122 
SCCF RECON,ioos:station:SCCF:13:1,2013-01-09T04:00:00Z,26.5255,-82.0032,1.0,-9999.0,1111122 
SCCF RECON,ioos:station:SCCF:13:1,2013-01-09T05:00:00Z,26.5255,-82.0032,1.0,-9999.0,1111122 
SCCF RECON,ioos:station:SCCF:13:1,2013-01-09T06:00:00Z,26.5255,-82.0032,1.0,-9999.0,1111122 
SCCF RECON,ioos:station:SCCF:13:1,2013-01-09T07:00:00Z,26.5255,-82.0032,1.0,-9999.0,1111122 
SCCF RECON,ioos:station:SCCF:13:1,2013-01-09T08:00:00Z,26.5255,-82.0032,1.0,-9999.0,1111122 
SCCF RECON,ioos:station:SCCF:13:1,2013-01-09T09:00:00Z,26.5255,-82.0032,1.0,-9999.0,1111122 
SCCF RECON,ioos:station:SCCF:13:1,2013-01-09T10:00:00Z,26.5255,-82.0032,1.0,-9999.0,1111122 
SCCF RECON,ioos:station:SCCF:13:1,2013-01-09T11:00:00Z,26.5255,-82.0032,1.0,-9999.0,1111122 
SCCF RECON,ioos:station:SCCF:13:1,2013-01-09T12:00:00Z,26.5255,-82.0032,1.0,-9999.0,1111122 
SCCF RECON,ioos:station:SCCF:13:1,2013-01-09T13:00:00Z,26.5255,-82.0032,1.0,-9999.0,1111122 
SCCF RECON,ioos:station:SCCF:13:1,2013-01-09T14:00:00Z,26.5255,-82.0032,1.0,-9999.0,1111122 
SCCF RECON,ioos:station:SCCF:13:1,2013-01-09T15:00:00Z,26.5255,-82.0032,1.0,-9999.0,1111122 
SCCF RECON,ioos:station:SCCF:13:1,2013-01-09T16:00:00Z,26.5255,-82.0032,1.0,-9999.0,1111122 
SCCF RECON,ioos:station:SCCF:13:1,2013-01-09T17:00:00Z,26.5255,-82.0032,1.0,-9999.0,1111122 
SCCF RECON,ioos:station:SCCF:13:1,2013-01-09T18:00:00Z,26.5255,-82.0032,1.0,-9999.0,1111122 
SCCF RECON,ioos:station:SCCF:13:1,2013-01-09T19:00:00Z,26.5255,-82.0032,1.0,-9999.0,1111122 
SCCF RECON,ioos:station:SCCF:13:1,2013-01-09T20:00:00Z,26.5255,-82.0032,1.0,-9999.0,1111122 
SCCF RECON,ioos:station:SCCF:13:1,2013-01-09T21:00:00Z,26.5255,-82.0032,1.0,-9999.0,1111122 
SCCF RECON,ioos:station:SCCF:13:1,2013-01-09T22:00:00Z,26.5255,-82.0032,1.0,-9999.0,1111122 
SCCF RECON,ioos:station:SCCF:13:1,2013-01-09T23:00:00Z,26.5255,-82.0032,1.0,-9999.0,1111122 
SCCF RECON,ioos:station:SCCF:13:1,2013-01-10T00:00:00Z,26.5255,-82.0032,1.0,-9999.0,1111122 
SCCF RECON,ioos:station:SCCF:13:1,2013-01-10T01:00:00Z,26.5255,-82.0032,1.0,-9999.0,1111122 
SCCF RECON,ioos:station:SCCF:13:1,2013-01-10T02:00:00Z,26.5255,-82.0032,1.0,-9999.0,1111122 
SCCF RECON,ioos:station:SCCF:13:1,2013-01-10T03:00:00Z,26.5255,-82.0032,1.0,-9999.0,1111122 
SCCF RECON,ioos:station:SCCF:13:1,2013-01-10T04:00:00Z,26.5255,-82.0032,1.0,-9999.0,1111122 
SCCF RECON,ioos:station:SCCF:13:1,2013-01-10T05:00:00Z,26.5255,-82.0032,1.0,-9999.0,1111122 
SCCF RECON,ioos:station:SCCF:13:1,2013-01-10T06:00:00Z,26.5255,-82.0032,1.0,-9999.0,1111122 
SCCF RECON,ioos:station:SCCF:13:1,2013-01-10T07:00:00Z,26.5255,-82.0032,1.0,-9999.0,1111122 
SCCF RECON,ioos:station:SCCF:13:1,2013-01-10T08:00:00Z,26.5255,-82.0032,1.0,-9999.0,1111122 
SCCF RECON,ioos:station:SCCF:13:1,2013-01-10T09:00:00Z,26.5255,-82.0032,1.0,-9999.0,1111122 
SCCF RECON,ioos:station:SCCF:13:1,2013-01-10T10:00:00Z,26.5255,-82.0032,1.0,-9999.0,1111122 
SCCF RECON,ioos:station:SCCF:13:1,2013-01-10T11:00:00Z,26.5255,-82.0032,1.0,-9999.0,1111122 
SCCF RECON,ioos:station:SCCF:13:1,2013-01-10T12:00:00Z,26.5255,-82.0032,2.468,26.13,1111122 
SCCF RECON,ioos:station:SCCF:13:1,2013-01-10T13:00:00Z,26.5255,-82.0032,2.499,28.68,1111122 
SCCF RECON,ioos:station:SCCF:13:1,2013-01-10T14:00:00Z,26.5255,-82.0032,2.493,30.43,1111122 
SCCF RECON,ioos:station:SCCF:13:1,2013-01-10T15:00:00Z,26.5255,-82.0032,2.49,30.96,1111122 
SCCF RECON,ioos:station:SCCF:13:1,2013-01-10T16:00:00Z,26.5255,-82.0032,2.48,31.13,1111122 
SCCF RECON,ioos:station:SCCF:13:1,2013-01-10T17:00:00Z,26.5255,-82.0032,2.43,31.24,1111122 
SCCF RECON,ioos:station:SCCF:13:1,2013-01-10T18:00:00Z,26.5255,-82.0032,2.37,30.77,1111122 
SCCF RECON,ioos:station:SCCF:13:1,2013-01-10T19:00:00Z,26.5255,-82.0032,2.4,29.14,1111122 
SCCF RECON,ioos:station:SCCF:13:1,2013-01-10T20:00:00Z,26.5255,-82.0032,2.54,29.09,1111122 
SCCF RECON,ioos:station:SCCF:13:1,2013-01-10T21:00:00Z,26.5255,-82.0032,2.67,30.52,1111122 
SCCF RECON,ioos:station:SCCF:13:1,2013-01-10T22:00:00Z,26.5255,-82.0032,2.74,31.3,1111122 
SCCF RECON,ioos:station:SCCF:13:1,2013-01-10T23:00:00Z,26.5255,-82.0032,2.8,32.4,1111122 
SCCF RECON,ioos:station:SCCF:13:1,2013-01-11T00:00:00Z,26.5255,-82.0032,2.84,32.6,1111122 
SCCF RECON,ioos:station:SCCF:13:1,2013-01-11T01:00:00Z,26.5255,-82.0032,2.791,32.55,1111122 
SCCF RECON,ioos:station:SCCF:13:1,2013-01-11T02:00:00Z,26.5255,-82.0032,2.644,32.54,1111122 
SCCF RECON,ioos:station:SCCF:13:1,2013-01-11T03:00:00Z,26.5255,-82.0032,2.51,32.37,1111122 
SCCF RECON,ioos:station:SCCF:13:1,2013-01-11T04:00:00Z,26.5255,-82.0032,2.4,30.69,1111122 
SCCF RECON,ioos:station:SCCF:13:1,2013-01-11T05:00:00Z,26.5255,-82.0032,2.3,28.68,1111122 
SCCF RECON,ioos:station:SCCF:13:1,2013-01-11T06:00:00Z,26.5255,-82.0032,2.2,27.38,1111122 
SCCF RECON,ioos:station:SCCF:13:1,2013-01-11T07:00:00Z,26.5255,-82.0032,2.11,26.58,1111122 
SCCF RECON,ioos:station:SCCF:13:1,2013-01-11T08:00:00Z,26.5255,-82.0032,2.067,25.45,1111122 
SCCF RECON,ioos:station:SCCF:13:1,2013-01-11T09:00:00Z,26.5255,-82.0032,2.15,24.47,1111122 
SCCF RECON,ioos:station:SCCF:13:1,2013-01-11T10:00:00Z,26.5255,-82.0032,2.281,23.64,1111122 
SCCF RECON,ioos:station:SCCF:13:1,2013-01-11T11:00:00Z,26.5255,-82.0032,2.37,23.47,1111122 
SCCF RECON,ioos:station:SCCF:13:1,2013-01-11T12:00:00Z,26.5255,-82.0032,2.429,26.08,1111122 
SCCF RECON,ioos:station:SCCF:13:1,2013-01-11T13:00:00Z,26.5255,-82.0032,2.47,27.41,1111122 
SCCF RECON,ioos:station:SCCF:13:1,2013-01-11T14:00:00Z,26.5255,-82.0032,2.481,29.76,1111122 
SCCF RECON,ioos:station:SCCF:13:1,2013-01-11T15:00:00Z,26.5255,-82.0032,2.46,30.91,1111122 
SCCF RECON,ioos:station:SCCF:13:1,2013-01-11T16:00:00Z,26.5255,-82.0032,2.429,31.11,1111122 
SCCF RECON,ioos:station:SCCF:13:1,2013-01-11T17:00:00Z,26.5255,-82.0032,2.39,31.18,1111122 